SGESSBRJ

Guest
Details From SGES - Guarani Intl
To SBRJ - Santos-dumont
Flight Number -
Tags Generated
Created
Modified
Stats Distance 658 nm / 1,219 km
Max Altitude 0 ft / 0 m
Waypoints 4
Social Downloads 3
Likes 0
Share VATSIM

Download

Looking for another format? Having issues loading an existing format? Contact us
Advertisement - Login to hide

Notes

Generated

Route

SGES EMB JPG SBRJ

ID Type Via Altitude Latitude Longitude Leg Dist Tot Dist Heading (true) Name
O SGES APT - 0 ft / 0 m -25.46712˚ -54.85464˚ - 0 nm - -
EMB NDB - 0 ft / 0 m -23.85067˚ -46.81633˚ 449 nm 449 nm 79° / 76° EMBUGUACU NDB
JPG NDB - 0 ft / 0 m -22.98789˚ -43.36891˚ 196 nm 646 nm 75° / 74° JACAREPAGUA NDB
O SBRJ APT - 0 ft / 0 m -22.91603˚ -43.16328˚ 12 nm 658 nm 69° / 69° -

Altitude Profile

Advertisement - Login to hide

Weather


0- 5 10 15 20 25 30 35+ Temperature / ° C

Clouds and Precipitation
Forecast for 2018-05-20 18:00 UTC. Updated an hour ago

Ground ~20,000 ft ~40,000 ft Winds

SGES

Details ICAO SGES (AGT)
Name GUARANI INTL
Region Paraguay
Timezone America/Asuncion (UTC-4.0)
Stats Elevation 846 ft / 258 m (AMSL)
Location -25.455499° -54.843593°
Runways 1
Magnetic Variation 16.154° W

METAR

SGES 201600Z 30006KT 9999 BKN027 16/09 Q1020

Decode

TAF

Not found

Departure Runways

ID Width Length Bearing (true) Bearing (mag) Surface Threshold Offset Overrun Length
05 148 ft / 45 m 11,175 ft / 3,406 m 40.64° 56.79° Asphalt 0 ft / 0 m 197 ft / 60 m
23 148 ft / 45 m 11,175 ft / 3,406 m 220.63° 236.78° Asphalt 0 ft / 0 m 197 ft / 60 m

SBRJ

Details ICAO SBRJ (SDU)
Name Santos-Dumont
Region Brazil
Timezone Unknown (UTC+0.0)
Stats Elevation 11 ft / 3 m (AMSL)
Location -22.910460° -43.163133°
Runways 2
Magnetic Variation 22.824° W

METAR

SBRJ 201600Z 21013KT 9999 FEW025 26/13 Q1010

Decode

TAF

TAF SBRJ 200840Z 2012/2024 27010KT 7000 SCT017 TX25/2016Z TN21/2024Z BECMG 2012/2014 24014KT BECMG 2015/2017 22012KT BECMG 2019/2021 20010KT RMK PGW

Decode

Destination Runways

ID Width Length Bearing (true) Bearing (mag) Surface Threshold Offset Overrun Length
02L 98 ft / 30 m 4,154 ft / 1,266 m 358.02° 20.84° Asphalt 0 ft / 0 m 80 ft / 24 m
02R 138 ft / 42 m 4,361 ft / 1,329 m 358.01° 20.83° Asphalt 0 ft / 0 m 80 ft / 24 m
20L 138 ft / 42 m 4,361 ft / 1,329 m 178.01° 200.83° Asphalt 0 ft / 0 m 80 ft / 24 m
20R 98 ft / 30 m 4,154 ft / 1,266 m 178.02° 200.84° Asphalt 0 ft / 0 m 95 ft / 29 m

Approach Navaids

Runway Type Ident Frequency Range Bearing (true) Bearing (mag) Slope Elevation
20L Localiser IRJ 111.10 MHz 18 nm / 33 km 172.42° 195.25° - 11 ft / 3 m (AMSL)